Dewpoint
72 71 71 70 70 70 69 70 70 71 71 71 71 71 71 71 71 72 71 71 70 69 69 68 68 67 67 66 66 66 62 61
71 71 71 71 71 69 68 69 69 70 70 70 70 70 70 70 71 71 71 70 69 69 68 68 67 66 66 66 65 65 60 61
69 69 69 70 70 70 69 69 69 69 70 69 68 69 70 71 69 70 70 69 68 68 68 67 67 66 65 65 65 59 60 60
67 68 68 69 66 70 69 68 68 69 69 70 68 68 68 68 68 69 69 68 68 67 67 66 66 64 65 65 61 61 61 61
65 68 69 68 66 67 66 67 67 67 69 69 68 67 68 68 68 69 68 68 65 65 66 64 64 63 62 63 62 63 60 60
63 65 67 68 64 66 68 67 66 66 67 70 68 67 68 68 67 67 67 66 65 63 62 63 64 64 64 64 64 62 60 61
62 65 66 67 67 65 67 67 67 67 67 70 68 67 68 67 67 66 66 66 64 65 63 63 64 64 63 63 63 63 63 60
61 63 66 65 65 66 67 68 67 67 67 69 70 68 68 67 67 66 68 67 65 64 64 63 62 62 63 63 63 61 62 62
56 63 65 66 66 66 66 66 66 67 67 68 69 69 68 68 67 66 66 68 67 65 65 64 62 62 62 63 62 63 61 62
52 58 63 65 65 64 64 64 66 66 67 68 69 68 68 68 67 67 66 69 67 66 65 64 63 62 62 61 62 62 63 63
42 58 62 64 65 64 65 65 66 66 67 66 68 68 68 67 66 67 68 68 67 66 65 65 63 62 61 62 63 63 62 61
36 53 62 64 65 65 64 63 65 64 64 65 67 67 68 67 66 66 67 65 66 66 66 65 64 63 60 62 63 63 62 63
31 45 62 64 64 64 63 63 63 63 63 64 65 66 67 67 66 66 68 65 65 66 65 65 65 64 64 63 63 64 64 62
31 38 58 62 63 63 63 63 61 62 63 64 64 65 66 66 66 65 66 64 66 65 65 65 65 65 62 62 60 61 63 63
30 32 53 61 62 63 62 63 61 60 60 61 64 65 66 66 66 65 65 65 65 65 65 64 63 64 64 60 59 55 56 60
31 34 48 59 62 61 61 60 58 58 60 60 61 64 65 66 67 66 67 66 65 65 65 65 65 62 64 64 62 59 54 54
34 35 43 57 62 62 62 61 60 59 60 62 65 65 65 65 66 67 66 66 65 65 64 65 66 65 63 63 63 61 59 56
44 42 43 56 63 63 64 62 61 63 65 66 65 66 66 67 65 64 64 62 61 62 65 65 65 66 65 64 62 60 59 58
51 50 48 51 53 55 63 65 66 65 65 65 65 64 63 63 64 62 61 61 60 59 62 64 65 64 65 65 64 63 61 59
41 42 43 44 46 47 50 52 57 56 58 62 64 64 64 65 63 62 62 61 62 63 63 64 65 65 64 65 64 63 63 61
Lifted_Index
-7 -6 -6 -6 -6 -5 -5 -5 -5 -5 -5 -5 -5 -5 -4 -4 -4 -4 -4 -3 -2 -2 -1 -1 -1 -1 -1 -1 -1 -1 -2 -2
-7 -7 -6 -6 -6 -5 -5 -4 -5 -5 -5 -5 -5 -5 -4 -4 -4 -4 -3 -3 -2 -2 -1 -1 -1 -1 -0 -0 -0 -1 -1 -2
-7 -7 -7 -7 -6 -6 -5 -4 -5 -5 -5 -5 -5 -5 -4 -4 -4 -4 -3 -2 -2 -1 -1 -1 -1 -1 -1 -0 -0 -1 -1 -2
-7 -7 -7 -6 -6 -6 -5 -5 -5 -5 -5 -5 -5 -5 -5 -4 -4 -3 -3 -2 -1 -1 -1 -1 -1 -1 -1 -1 -1 -1 -2 -2
-6 -6 -6 -6 -6 -6 -6 -6 -5 -5 -5 -5 -5 -5 -5 -5 -4 -4 -3 -2 -2 -1 -1 -1 -2 -2 -2 -2 -2 -2 -2 -2
-5 -6 -6 -5 -5 -6 -6 -6 -6 -6 -6 -6 -6 -6 -5 -5 -5 -4 -4 -3 -2 -2 -2 -2 -2 -2 -2 -2 -2 -2 -2 -2
-5 -5 -5 -5 -5 -5 -6 -6 -6 -6 -6 -6 -6 -6 -6 -6 -5 -5 -4 -4 -3 -3 -3 -2 -2 -2 -2 -2 -2 -2 -2 -2
-4 -4 -5 -5 -5 -5 -5 -6 -6 -6 -6 -6 -6 -6 -6 -6 -6 -5 -5 -5 -4 -4 -3 -3 -3 -2 -2 -2 -2 -2 -2 -2
-2 -4 -4 -5 -4 -5 -5 -5 -6 -6 -6 -6 -6 -6 -6 -6 -6 -6 -5 -5 -5 -5 -4 -4 -3 -3 -3 -3 -2 -2 -2 -2
-1 -3 -4 -5 -4 -4 -5 -5 -5 -6 -6 -5 -5 -6 -6 -6 -6 -6 -6 -6 -5 -5 -5 -4 -4 -3 -3 -3 -3 -2 -2 -2
1 -1 -4 -5 -5 -4 -5 -5 -5 -5 -5 -5 -5 -5 -5 -6 -5 -5 -6 -6 -6 -5 -5 -5 -4 -4 -3 -3 -3 -3 -2 -2
4 0 -4 -5 -5 -5 -4 -5 -5 -5 -5 -5 -5 -5 -5 -5 -5 -5 -6 -6 -6 -5 -5 -5 -5 -4 -4 -3 -3 -3 -2 -2
7 3 -3 -5 -5 -5 -4 -4 -4 -4 -5 -4 -4 -4 -5 -5 -5 -5 -5 -6 -5 -5 -5 -5 -5 -4 -4 -3 -3 -3 -2 -2
9 5 -1 -5 -6 -6 -5 -5 -4 -4 -4 -4 -4 -4 -4 -4 -5 -5 -5 -5 -5 -5 -5 -5 -5 -5 -4 -4 -3 -3 -2 -2
9 6 1 -4 -6 -6 -6 -5 -4 -4 -4 -4 -4 -4 -4 -4 -5 -5 -5 -5 -5 -4 -4 -4 -4 -4 -4 -4 -3 -3 -3 -2
9 7 2 -3 -6 -6 -6 -5 -4 -4 -5 -5 -5 -5 -5 -5 -5 -6 -5 -5 -4 -4 -4 -4 -4 -4 -4 -4 -3 -3 -2 -2
8 6 3 -3 -6 -6 -6 -5 -5 -5 -5 -5 -5 -5 -5 -5 -5 -5 -5 -4 -3 -3 -3 -4 -4 -4 -4 -4 -3 -3 -2 -2
4 4 1 -3 -6 -7 -7 -6 -6 -6 -6 -6 -6 -5 -5 -5 -5 -4 -4 -3 -2 -1 -2 -3 -3 -3 -4 -4 -3 -3 -2 -2
1 0 -2 -4 -6 -7 -7 -7 -6 -6 -6 -6 -6 -5 -6 -6 -5 -4 -3 -2 -1 -1 -1 -2 -3 -3 -3 -4 -4 -3 -3 -2
-1 -2 -3 -5 -6 -7 -7 -7 -6 -6 -6 -5 -5 -5 -6 -6 -5 -4 -3 -2 -1 -1 -1 -2 -3 -3 -3 -4 -4 -3 -3 -3